Starlink 11714

operational
NORAD ID: 64134 Int'l Des: 2025-111 Owner: SPXS Country: US Constellation: starlink
LEOCIRCULAR

About Starlink 11714

Description loading...

Live Position

Loading 3D Globe...

Upcoming Passes

Altitude History

Altitude vs Time

uPlot chart will show altitude changes over time

Two-Line Element Set

1 64134U 25111M 25305.50458728 .00129284 00000-0 99298-3 0 9998
2 64134 43.0001 26.0831 0002460 268.5098 91.5488 15.70897388 26489
Epoch: Nov 1, 2025 • Age: 56 hours

Current Status

Altitude 358.8 km
Velocity 7.70 km/s
Sub-Earth Point -22.78°S, 4.21°W
Launch Date May 24, 2025
Age 0.4 years
Type internet

Technical Details

Classification Payload
Mass 960.00 kg
Dry Mass 910.00 kg
Total Mass 960.00 kg
Length 0.30 m
Diameter 4.10 m
Span 29.00 m
Shape Box + pan
Manufacturer SPXS
Bus Type Starlink V2MD
Phase Status In Orbit
Owner/State SPXS/US

Large Constellations

Loading constellations...